EB7GYR Weather Reports


time (UTC)temp
F
wind
direction
speed
knots
gust
knots
rain 1hr
in
rain 24hr
in
rain mn
in
humidity
%
barometer
mb
20260506044537 54 338 3.5 5.2 0.00 0.00 0.00 74 1010.4
20260506043517 54 338 1.7 3.5 0.00 0.00 0.00 76 1010.4
20260506042517 54 338 3.5 5.2 0.00 0.00 0.00 77 1010.4
20260506041517 54 338 3.5 4.3 0.00 0.00 0.00 79 1010.5
20260506040517 54 338 2.6 5.2 0.00 0.00 0.00 81 1010.5
20260506035517 54 0 0.9 2.6 0.00 0.00 0.00 82 1010.6
20260506034517 54 0 0.9 2.6 0.00 0.00 0.00 82 1010.6
20260506033517 54 0 0.9 2.6 0.00 0.00 0.00 81 1010.6
20260506032517 55 338 1.7 2.6 0.00 0.00 0.00 80 1010.7
20260506031518 55 338 1.7 2.6 0.00 0.00 0.00 79 1010.7
20260506030517 56 338 1.7 2.6 0.00 0.00 0.00 78 1010.8
20260506025518 56 0 1.7 3.5 0.00 0.00 0.00 77 1010.8
20260506024517 56 0 0.9 2.6 0.00 0.00 0.00 76 1010.9
20260506023537 57 0 0.9 2.6 0.00 0.00 0.00 75 1010.9
20260506022517 57 0 1.7 3.5 0.00 0.00 0.00 75 1011.0
20260506021557 57 338 1.7 3.5 0.00 0.00 0.00 74 1011.0
20260506020518 57 338 2.6 4.3 0.00 0.00 0.00 74 1010.9
20260506015518 57 338 4.3 5.2 0.00 0.00 0.00 73 1011.0
20260506014517 57 338 1.7 5.2 0.00 0.00 0.00 75 1011.2
20260506013518 57 315 0.9 2.6 0.00 0.00 0.00 77 1011.2
20260506012517 57 0.0 0.0 0.00 0.00 0.00 80 1011.3
20260506011517 58 0.0 0.9 0.00 0.00 0.00 81 1011.4
20260506010538 58 0.0 0.0 0.00 0.00 0.00 80 1011.5
20260506005517 58 0.0 0.0 0.00 0.00 0.00 80 1011.5
20260506004517 58 0.0 0.0 0.00 0.00 0.00 80 1011.6
20260506003517 58 0.0 0.0 0.00 0.00 0.00 80 1011.7
20260506002518 58 0.0 0.0 0.00 0.00 0.00 80 1011.8
20260506001558 58 0.0 0.0 0.00 0.00 0.00 80 1012.0
20260506000517 59 0.0 0.0 0.00 0.00 0.00 79 1012.1
20260505235558 59 0.0 0.0 0.00 0.00 0.00 79 1012.1
20260505234537 59 0.0 0.0 0.00 0.00 0.00 79 1012.1
20260505233517 59 0.0 1.7 0.00 0.00 0.00 78 1012.1
20260505232517 59 158 0.9 1.7 0.00 0.00 0.00 78 1012.0
20260505231517 60 158 0.9 2.6 0.00 0.00 0.00 78 1012.0
20260505230537 60 0.0 0.0 0.00 0.00 0.00 78 1012.0
20260505225518 60 0.0 0.0 0.00 0.00 0.00 77 1012.0
20260505224518 60 158 0.9 2.6 0.00 0.00 0.00 77 1012.1
20260505223516 60 158 0.9 3.5 0.00 0.00 0.00 77 1012.2
20260505222518 60 135 2.6 7.0 0.00 0.00 0.00 76 1012.3
20260505221516 61 135 5.2 7.8 0.00 0.00 0.00 75 1012.3
20260505220516 62 135 3.5 5.2 0.00 0.00 0.00 74 1012.2
20260505215517 63 135 3.5 6.1 0.00 0.00 0.00 72 1012.4
20260505214517 63 158 2.6 4.3 0.00 0.00 0.00 71 1012.3
20260505213517 64 248 1.7 3.5 0.00 0.00 0.00 71 1012.3
20260505212537 64 248 1.7 4.3 0.00 0.00 0.00 71 1012.3
20260505211538 64 248 0.9 5.2 0.00 0.00 0.00 71 1012.3
20260505210537 64 248 1.7 3.5 0.00 0.00 0.00 71 1012.4
20260505205517 63 225 0.9 2.6 0.00 0.00 0.00 71 1012.4
20260505204518 63 225 1.7 3.5 0.00 0.00 0.00 71 1012.4
20260505203517 63 225 1.7 4.3 0.00 0.00 0.00 70 1012.4
20260505202517 64 225 1.7 5.2 0.00 0.00 0.00 70 1012.4
20260505201517 64 180 1.7 5.2 0.00 0.00 0.00 69 1012.4
20260505200517 64 203 2.6 8.7 0.00 0.00 0.00 68 1012.4
20260505195517 64 203 2.6 5.2 0.00 0.00 0.00 67 1012.3
20260505194517 64 225 3.5 7.8 0.00 0.00 0.00 67 1012.2
20260505193517 65 225 4.3 9.6 0.00 0.00 0.00 66 1012.1
20260505192518 65 248 2.6 7.8 0.00 0.00 0.00 66 1012.1
20260505191517 65 225 3.5 8.7 0.00 0.00 0.00 65 1012.0
20260505190517 65 203 5.2 9.6 0.00 0.00 0.00 64 1012.0
20260505185517 66 203 4.3 10.4 0.00 0.00 0.00 64 1012.1
20260505184557 66 225 5.2 9.6 0.00 0.00 0.00 63 1012.1
20260505183518 66 248 4.3 10.4 0.00 0.00 0.00 62 1012.2
20260505182517 66 225 7.8 15.6 0.00 0.00 0.00 61 1012.2
20260505181518 66 225 7.0 14.8 0.00 0.00 0.00 61 1012.0
20260505180517 67 248 7.8 13.0 0.00 0.00 0.00 60 1012.0
20260505175518 67 248 7.8 15.6 0.00 0.00 0.00 59 1012.0
20260505174516 67 248 6.1 11.3 0.00 0.00 0.00 61 1012.1
20260505173518 67 225 8.7 16.5 0.00 0.00 0.00 59 1011.9
20260505172517 67 270 7.0 13.9 0.00 0.00 0.00 59 1011.9
20260505171518 67 248 7.8 15.6 0.00 0.00 0.00 58 1012.0
20260505170538 68 248 7.8 14.8 0.00 0.00 0.00 57 1012.0
20260505165517 68 248 7.0 13.9 0.00 0.00 0.00 56 1012.1
20260505164516 68 248 7.8 17.4 0.00 0.00 0.00 57 1012.0
20260505163516 68 248 7.8 16.5 0.00 0.00 0.00 56 1012.2
20260505162517 68 270 7.8 13.9 0.00 0.00 0.00 55 1012.2
20260505161516 69 248 9.6 18.2 0.00 0.00 0.00 51 1012.4
20260505160538 70 270 7.0 13.9 0.00 0.00 0.00 46 1012.3
20260505152516 71 225 7.0 15.6 0.00 0.00 0.00 42 1012.3
20260505151518 71 270 6.1 11.3 0.00 0.00 0.00 42 1012.3
20260505150517 72 270 7.0 13.0 0.00 0.00 0.00 42 1012.3
20260505140516 71 270 5.2 9.6 0.00 0.00 0.00 40 1012.8
20260505124516 71 293 3.5 10.4 0.00 0.00 0.00 36 1013.3
20260505123516 70 315 6.1 12.2 0.00 0.00 0.00 37 1013.4
20260505122518 70 248 4.3 8.7 0.00 0.00 0.00 36 1013.5
20260505121516 70 293 7.0 12.2 0.00 0.00 0.00 37 1013.7
20260505120517 70 315 3.5 8.7 0.00 0.00 0.00 38 1013.8
20260505115536 69 293 4.3 9.6 0.00 0.00 0.00 38 1013.9
20260505114516 70 315 3.5 8.7 0.00 0.00 0.00 37 1014.0
20260505113516 70 315 6.1 13.9 0.00 0.00 0.00 39 1013.8
20260505112516 69 293 3.5 7.8 0.00 0.00 0.00 41 1014.1
20260505111517 69 293 3.5 8.7 0.00 0.00 0.00 41 1014.2
20260505110516 69 338 3.5 9.6 0.00 0.00 0.00 43 1014.1
20260505101516 67 338 4.3 8.7 0.00 0.00 0.00 47 1014.5
20260505100517 66 0 3.5 8.7 0.00 0.00 0.00 50 1014.4
20260505095516 66 315 4.3 8.7 0.00 0.00 0.00 51 1014.4
20260505094536 65 315 2.6 7.0 0.00 0.00 0.00 53 1014.4
20260505093516 65 315 3.5 7.0 0.00 0.00 0.00 54 1014.4
20260505092515 65 0 4.3 8.7 0.00 0.00 0.00 55 1014.4
20260505091537 65 293 2.6 7.0 0.00 0.00 0.00 57 1014.4
20260505090518 64 315 2.6 7.0 0.00 0.00 0.00 59 1014.5
20260505085518 63 315 2.6 7.0 0.00 0.00 0.00 61 1014.5
20260505084517 63 338 2.6 7.8 0.00 0.00 0.00 61 1014.5
20260505083517 63 293 5.2 9.6 0.00 0.00 0.00 62 1014.5
20260505082518 62 315 3.5 7.0 0.00 0.00 0.00 64 1014.4
20260505081517 62 338 3.5 7.8 0.00 0.00 0.00 64 1014.4
20260505080519 61 338 5.2 7.0 0.00 0.00 0.00 64 1014.5
20260505075518 60 338 3.5 7.0 0.00 0.00 0.00 66 1014.5
20260505074518 60 0 2.6 6.1 0.00 0.00 0.00 67 1014.4
20260505073517 59 338 2.6 4.3 0.00 0.00 0.00 68 1014.3
20260505072518 58 338 3.5 6.1 0.00 0.00 0.00 69 1014.3
20260505071600 58 315 1.7 3.5 0.00 0.00 0.00 71 1014.4
20260505070517 57 315 1.7 3.5 0.00 0.00 0.00 73 1014.4
20260505065517 56 338 3.5 5.2 0.00 0.00 0.00 73 1014.4
20260505064517 56 338 3.5 7.0 0.00 0.00 0.00 74 1014.4
20260505063517 55 0 2.6 4.3 0.00 0.00 0.00 75 1014.2
20260505062537 55 23 1.7 3.5 0.00 0.00 0.00 76 1014.2
20260505061517 55 45 2.6 3.5 0.00 0.00 0.00 76 1014.2
20260505060517 55 0 0.9 2.6 0.00 0.00 0.00 76 1014.1
20260505055517 56 0 1.7 3.5 0.00 0.00 0.00 75 1014.0
20260505054517 56 338 2.6 5.2 0.00 0.00 0.00 75 1013.8
20260505053517 55 338 3.5 7.0 0.00 0.00 0.00 76 1013.8
20260505052539 55 338 2.6 4.3 0.00 0.00 0.00 77 1013.7
20260505051537 55 315 2.6 5.2 0.00 0.00 0.00 77 1013.5
20260505050517 55 338 2.6 3.5 0.00 0.00 0.00 77 1013.6